Moose, Wyoming, United States (83012)
Lat: 43.66N, Lon: 110.72W
Wx Zone: WYZ013
Local Info
Past Weather Observations for Sunday, October 26, 2014

NOTE: This archive is for the closest National Weather Service station to Moose. Information may differ from the station used for current weather conditions.

Click here for Long-term Archive

Time Weather Temperature Dewpoint Humidity Pressure Winds Precip Visibility
23:55
Overcast
34°F / 1°C 25°F / -4°C 70% 29.98 in
(1015 mb)
SW 9.2 mph
(SW 15 kph)
- 10SM
23:35
Overcast
34°F / 1°C 25°F / -4°C 70% 29.95 in
(1014 mb)
SSE 11.5 mph
(SSE 19 kph)
- 10SM
23:15
Mostly Cloudy
34°F / 1°C 27°F / -3°C 75% 29.98 in
(1015 mb)
S 9.2 mph
(S 15 kph)
- 10SM
22:55
Overcast
34°F / 1°C 27°F / -3°C 75% 29.98 in
(1015 mb)
SW 10.4 mph
(SW 17 kph)
- 7SM
22:35
Overcast
36°F / 2°C 27°F / -3°C 70% 29.98 in
(1015 mb)
S 12.7 mph
(S 20 kph)
- 10SM
22:15
Overcast
36°F / 2°C 25°F / -4°C 65% 29.95 in
(1014 mb)
S 13.8 mph
(S 22 kph)
- 10SM
21:55
Overcast
36°F / 2°C 25°F / -4°C 65% 29.95 in
(1014 mb)
S 12.7 mph
(S 20 kph)
- 10SM
21:35
Overcast
36°F / 2°C 25°F / -4°C 65% 29.95 in
(1014 mb)
S 10.4 mph
(S 17 kph)
- 10SM
21:15
Overcast
36°F / 2°C 25°F / -4°C 65% 29.95 in
(1014 mb)
S 16.1 mph
(S 26 kph)
- 10SM
20:55
Overcast
36°F / 2°C 25°F / -4°C 65% 29.95 in
(1014 mb)
S 15 mph
(S 24 kph)
- 10SM
20:35
Overcast
36°F / 2°C 25°F / -4°C 65% 29.95 in
(1014 mb)
S 13.8 mph
(S 22 kph)
- 10SM
20:15
Overcast
36°F / 2°C 25°F / -4°C 65% 29.95 in
(1014 mb)
S 13.8 mph
(S 22 kph)
- 10SM
19:55
Overcast
36°F / 2°C 23°F / -5°C 60% 29.95 in
(1014 mb)
SSE 12.7 mph
(SSE 20 kph)
- 10SM
18:55
Overcast
Showers In Vicinity
37°F / 3°C 23°F / -5°C 56% 29.95 in
(1014 mb)
SSE 16.1 mph
(SSE 26 kph)
- 10SM
17:51
Overcast
Showers In Vicinity
39°F / 4°C 19°F / -7°C 45% 29.95 in
(1014 mb)
S 16.1 mph
(S 26 kph)
- 10SM
16:55
Overcast
Showers In Vicinity
39°F / 4°C 16°F / -9°C 39% 29.95 in
(1014 mb)
S 17.3 mph
(S 28 kph)
- 10SM
15:51
Overcast
43°F / 6°C 21°F / -6°C 42% 29.95 in
(1014 mb)
SSE 16.1 mph
(SSE 26 kph)
- 10SM
14:51
Overcast
43°F / 6°C 23°F / -5°C 46% 29.95 in
(1014 mb)
SSE 16.1 mph
(SSE 26 kph)
- 10SM
13:55
Overcast
Showers In Vicinity
43°F / 6°C 28°F / -2°C 57% 29.95 in
(1014 mb)
S 9.2 mph
(S 15 kph)
- 10SM
12:53
Overcast
43°F / 6°C 30°F / -1°C 61% 29.95 in
(1014 mb)
S 16.1 mph
(S 26 kph)
- 10SM
11:52
Overcast
Light Rain
41°F / 5°C 30°F / -1°C 66% 29.95 in
(1014 mb)
SW 18.4 mph
(SW 30 kph)
- 10SM
10:52
Overcast
43°F / 6°C 30°F / -1°C 61% 29.95 in
(1014 mb)
SSE 13.8 mph
(SSE 22 kph)
- 10SM
09:52
Overcast
41°F / 5°C 30°F / -1°C 66% 29.98 in
(1015 mb)
SSE 16.1 mph
(SSE 26 kph)
- 10SM
08:55
Overcast
43°F / 6°C 30°F / -1°C 61% 30.01 in
(1016 mb)
SSE 6.9 mph
(SSE 11 kph)
- 10SM
07:51
Overcast
41°F / 5°C 36°F / 2°C 81% 29.98 in
(1015 mb)
Calm - 10SM
06:55
Partly Cloudy
39°F / 4°C 36°F / 2°C 87% 29.98 in
(1015 mb)
SW 5.8 mph
(SW 9 kph)
- 10SM
05:52
Overcast
39°F / 4°C 36°F / 2°C 87% 29.98 in
(1015 mb)
SSW 4.6 mph
(SSW 7 kph)
- 10SM
05:35
Overcast
39°F / 4°C 36°F / 2°C 87% 29.98 in
(1015 mb)
SSW 3.5 mph
(SSW 6 kph)
- 10SM
05:15
Overcast
39°F / 4°C 37°F / 3°C 93% 29.98 in
(1015 mb)
SSW 5.8 mph
(SSW 9 kph)
- 10SM
04:55
Overcast
39°F / 4°C 37°F / 3°C 93% 29.98 in
(1015 mb)
W 6.9 mph
(W 11 kph)
- 10SM
04:35
Mostly Cloudy
39°F / 4°C 37°F / 3°C 93% 29.98 in
(1015 mb)
Calm - 10SM
04:15
Overcast
43°F / 6°C 36°F / 2°C 76% 29.98 in
(1015 mb)
S 8.1 mph
(S 13 kph)
- 10SM
03:55
Overcast
43°F / 6°C 37°F / 3°C 81% 29.98 in
(1015 mb)
SSE 15 mph
(SSE 24 kph)
- 10SM
03:35
Overcast
43°F / 6°C 37°F / 3°C 81% 29.98 in
(1015 mb)
S 19.6 mph
(S 32 kph)
- 10SM
03:15
Overcast
43°F / 6°C 37°F / 3°C 81% 29.98 in
(1015 mb)
S 17.3 mph
(S 28 kph)
- 10SM
02:55
Overcast
43°F / 6°C 37°F / 3°C 81% 30.01 in
(1016 mb)
S 11.5 mph
(S 19 kph)
0.01 in
(0.25 mm)
10SM
02:35
Overcast
43°F / 6°C 37°F / 3°C 81% 30.01 in
(1016 mb)
S 12.7 mph
(S 20 kph)
- 9SM
02:15
Overcast
45°F / 7°C 36°F / 2°C 71% 30.01 in
(1016 mb)
S 18.4 mph
(S 30 kph)
- 10SM
01:55
Overcast
46°F / 8°C 34°F / 1°C 62% 29.98 in
(1015 mb)
SW 10.4 mph
(SW 17 kph)
- 10SM
01:35
Overcast
46°F / 8°C 36°F / 2°C 66% 29.98 in
(1015 mb)
SW 23 mph
(SW 37 kph)
- 10SM
01:15
Overcast
46°F / 8°C 37°F / 3°C 71% 29.95 in
(1014 mb)
S 21.9 mph
(S 35 kph)
- 10SM
00:55
Overcast
48°F / 9°C 37°F / 3°C 66% 29.92 in
(1013 mb)
SW 8.1 mph
(SW 13 kph)
- 10SM
00:35
Overcast
50°F / 10°C 37°F / 3°C 62% 29.92 in
(1013 mb)
SSW 10.4 mph
(SSW 17 kph)
- 10SM
00:15
Overcast
50°F / 10°C 37°F / 3°C 62% 29.92 in
(1013 mb)
SSW 5.8 mph
(SSW 9 kph)
- 10SM
Time Weather Temperature Dewpoint Humidity Pressure Winds Precip Visibility


Weather for websites

WeatherForYou.com, LLC is not responsible for any damages or problems caused by this service. Current weather conditions are obtained from the closest station including government and personal stations which may have varying degrees of accuracy. Weather forecasts are derived from the NOAA NDFD. Like all things, this site belongs to Jesus Christ... He just trusts me to maintain it. If you have any questions or comments email webmaster@weatherforyou.com

Copyright © 2014, WeatherForYou.com LLC. All rights reserved.